Lær å fly hos oss!

Oslo Flyveklubb har i mange år utdannet flygere til privatflygersetifikat PPL(A). Skolen har godkjenning for å drive utdanning til teoriundervisning til PPL(A), privatflygersertifikat PPL (A) og mørkeflyging.

Gi bort en flytur i gave

På en introduksjonstur vil kandidaten være med på forberedelser til, og gjennomføring av en flytur på en times varighet med en av våre instruktører.

Hvor vi holder til?

Flyplassen ligger i Lillestrøm 10 minutter med tog fra Oslo. Følg storgata fra Lillestrøms sentrum så vill man se plassen på venstre side.

[WD_FB id="1"]

Metar/TAF Gardermoen:

ENGM 192220Z 18005KT CAVOK 19/10 Q1013

TAF ENGM 191700Z 1918/2018 21007KT CAVOK PROB40 TEMPO 2012/2018 SHRA SCT040CB BKN060